North Canton, OH

12:40 PM EST on January 24, 2017 (GMT -0500)
Akron-Canton Regional

Weather History for KCAK - February, 2014

Change the Weather History Date:

Saturday, February 22, 2014

  Actual Average Record
Temperature  
Mean Temperature 40 °F 30 °F  
Max Temperature 48 °F 38 °F 70 °F (1930)
Min Temperature 32 °F 23 °F -9 °F (1963)
Degree Days  
Heating Degree Days 25 35  
Month to date heating degree days 908 807  
Since 1 July heating degree days 4553 4343  
Cooling Degree Days 0 0  
Month to date cooling degree days 0 0  
Year to date cooling degree days 0 0  
Moisture  
Dew Point 23 °F    
Average Humidity 61    
Maximum Humidity 82    
Minimum Humidity 39    
Precipitation  
Precipitation 0.00 in 0.09 in 1.18 in (1971)
Month to date precipitation 1.50 1.79  
Year to date precipitation 3.42 4.40  
Snow  
Snow 0.00 in 0.30 in - ()
Month to date snowfall 15.1 8.1  
Since 1 July snowfall 57.4 34.1  
Snow Depth 1.00 in    
Sea Level Pressure  
Sea Level Pressure 29.98 in    
Wind  
Wind Speed 14 mph (West)    
Max Wind Speed 21 mph    
Max Gust Speed 21 mph    
Visibility 10 miles    
Events      
T = Trace of Precipitation, MM = Missing Value Source: NWS Daily Summary

Daily Weather History Graph

Daily Weather History Graph

Search for Another Location

Airport or City:

Trip Planner

Search our weather history database for the weather conditions in past years. The results will help you decide how hot, cold, wet, or windy it might be!

Date:

Astronomy

Feb. 22, 2014 Rise Set
Actual Time 7:10 AM EST 6:08 PM EST
Civil Twilight 6:42 AM EST 6:36 PM EST
Nautical Twilight 6:10 AM EST 7:08 PM EST
Astronomical Twilight 5:38 AM EST 7:40 PM EST
Moon 1:05 AM EST (2/22) 11:17 AM EST (2/22)
Length of Visible Light 11h 54m
Length of Day
10h 58m
Waning Gibbous, 50% of the Moon is Illuminated
Feb 22
Waning Gibbous
Feb 22
Last Quarter
Mar 1
New
Mar 8
First Quarter
Mar 16
Full

Hourly Weather History & Observations

Time (EST) Temp. Windchill Dew Point Humidity Pressure Visibility Wind Dir Wind Speed Gust Speed Precip Events Conditions
12:51 AM 33.6 °F 25.0 °F 15.3 °F 47% 29.93 in 10.0 mi SW 11.5 mph - N/A   Clear
1:51 AM 33.1 °F 24.4 °F 16.0 °F 50% 29.94 in 10.0 mi SSW 11.5 mph - N/A   Clear
2:51 AM 32.0 °F 23.0 °F 16.0 °F 52% 29.93 in 10.0 mi SSW 11.5 mph - N/A   Partly Cloudy
3:51 AM 34.0 °F 25.5 °F 16.0 °F 48% 29.88 in 10.0 mi SSW 11.5 mph - N/A   Mostly Cloudy
4:51 AM 37.9 °F 29.2 °F 16.0 °F 41% 29.88 in 10.0 mi SSW 15.0 mph - N/A   Mostly Cloudy
5:51 AM 37.0 °F 29.3 °F 16.0 °F 42% 29.88 in 10.0 mi SSW 11.5 mph - N/A   Scattered Clouds
6:51 AM 36.0 °F 28.0 °F 18.0 °F 48% 29.91 in 10.0 mi SSW 11.5 mph - N/A   Partly Cloudy
7:51 AM 36.0 °F 26.3 °F 19.0 °F 50% 29.95 in 10.0 mi SW 16.1 mph - N/A   Partly Cloudy
8:51 AM 39.9 °F 31.4 °F 23.0 °F 51% 29.99 in 10.0 mi SW 16.1 mph - N/A   Partly Cloudy
9:51 AM 43.0 °F 34.2 °F 26.1 °F 51% 30.01 in 10.0 mi WSW 20.7 mph - N/A   Scattered Clouds
10:51 AM 43.0 °F 34.2 °F 24.1 °F 47% 30.01 in 10.0 mi West 20.7 mph - N/A   Scattered Clouds
11:51 AM 45.0 °F 36.9 °F 24.1 °F 44% 30.03 in 10.0 mi West 20.7 mph - N/A   Scattered Clouds
12:51 PM 45.0 °F 36.9 °F 24.1 °F 44% 30.01 in 10.0 mi West 20.7 mph - N/A   Scattered Clouds
1:51 PM 48.0 °F - 25.0 °F 41% 30.01 in 10.0 mi West 20.7 mph - N/A   Scattered Clouds
2:51 PM 47.3 °F - 26.6 °F 45% 30.01 in 10.0 mi West 17.3 mph - N/A   Scattered Clouds
3:51 PM 47.3 °F - 26.6 °F 45% 30.00 in 10.0 mi West 17.3 mph - N/A   Mostly Cloudy
4:51 PM 46.4 °F 41.1 °F 27.5 °F 48% 29.99 in 10.0 mi WNW 11.5 mph - N/A   Scattered Clouds
5:51 PM 44.2 °F 38.4 °F 27.5 °F 52% 30.00 in 10.0 mi WNW 11.5 mph - N/A   Mostly Cloudy
6:51 PM 39.9 °F 32.9 °F 26.1 °F 58% 30.01 in 10.0 mi NW 11.5 mph - N/A   Mostly Cloudy
7:51 PM 39.4 °F 32.3 °F 26.6 °F 60% 30.02 in 10.0 mi NW 11.5 mph - N/A   Mostly Cloudy
8:51 PM 37.2 °F 30.6 °F 29.8 °F 75% 30.02 in 10.0 mi NW 9.2 mph - N/A   Mostly Cloudy
9:51 PM 37.0 °F 30.4 °F 30.7 °F 78% 30.03 in 10.0 mi NW 9.2 mph - N/A   Overcast
10:51 PM 37.0 °F 30.4 °F 32.0 °F 82% 30.03 in 10.0 mi NNW 9.2 mph - N/A   Overcast
11:51 PM 37.0 °F 30.4 °F 32.0 °F 82% 30.03 in 10.0 mi WNW 9.2 mph - N/A   Overcast